Yankton, SD

9:21 PM CDT on July 22, 2017 (GMT -0500)
Gurney Municipal

Weather History for KYKN - January, 2013

Change the Weather History Date:

Sunday, January 20, 2013

  Actual Average Record
Temperature  
Mean Temperature 8 °F -  
Max Temperature 14 °F 29 °F 50 °F (1981)
Min Temperature 1 °F 7 °F -29 °F (1970)
Degree Days  
Heating Degree Days 58    
Moisture  
Dew Point 3 °F    
Average Humidity 75    
Maximum Humidity 85    
Minimum Humidity 62    
Precipitation  
Precipitation 0.00 in - - ()
Sea Level Pressure  
Sea Level Pressure 30.38 in    
Wind  
Wind Speed 8 mph (NW)    
Max Wind Speed 17 mph    
Max Gust Speed 21 mph    
Visibility 9 miles    
Events      
Averages and records for this station are not official NWS values.
T = Trace of Precipitation, MM = Missing Value Source: NWS Daily Summary

Daily Weather History Graph

Daily Weather History Graph

Search for Another Location

Airport or City:

Trip Planner

Search our weather history database for the weather conditions in past years. The results will help you decide how hot, cold, wet, or windy it might be!

Date:

Astronomy

Jan. 20, 2013 Rise Set
Actual Time 7:54 AM CST 5:27 PM CST
Civil Twilight 7:23 AM CST 5:58 PM CST
Nautical Twilight 6:49 AM CST 6:32 PM CST
Astronomical Twilight 6:15 AM CST 7:06 PM CST
Moon 12:29 PM CST (1/20) 2:27 AM CST (1/20)
Length of Visible Light 10h 34m
Length of Day
9h 32m
Waxing Gibbous, 66% of the Moon is Illuminated
Jan 20
Waxing Gibbous
Jan 26
Full
Feb 3
Last Quarter
Feb 10
New
Feb 17
First Quarter

Hourly Weather History & Observations

Time (CST) Temp. Windchill Dew Point Humidity Pressure Visibility Wind Dir Wind Speed Gust Speed Precip Events Conditions
12:15 AM 10.4 °F -0.4 °F 1.4 °F 67% 30.37 in 10.0 mi NNW 6.9 mph - N/A   Clear
12:35 AM 10.4 °F -3.3 °F 1.4 °F 67% 30.36 in 10.0 mi NNW 10.4 mph - N/A   Clear
12:55 AM 10.4 °F -1.5 °F 1.4 °F 67% 30.37 in 10.0 mi NNW 8.1 mph - N/A   Clear
1:15 AM 8.6 °F -5.5 °F -0.4 °F 67% 30.36 in 10.0 mi NNW 10.4 mph - N/A   Clear
1:35 AM 8.6 °F -2.6 °F 1.4 °F 73% 30.35 in 10.0 mi NNW 6.9 mph - N/A   Clear
1:55 AM 8.6 °F 0.1 °F 3.2 °F 79% 30.35 in 10.0 mi North 4.6 mph - N/A   Clear
2:15 AM 8.6 °F -1.3 °F 3.2 °F 79% 30.34 in 10.0 mi North 5.8 mph - N/A   Clear
2:35 AM 8.6 °F 0.1 °F 3.2 °F 79% 30.34 in 10.0 mi North 4.6 mph - N/A   Clear
2:55 AM 8.6 °F -2.6 °F -0.4 °F 67% 30.35 in 10.0 mi North 6.9 mph - N/A   Clear
3:15 AM 8.6 °F -1.3 °F 1.4 °F 73% 30.35 in 10.0 mi NNW 5.8 mph - N/A   Clear
3:35 AM 8.6 °F -1.3 °F 3.2 °F 79% 30.35 in 10.0 mi NNW 5.8 mph - N/A   Clear
3:55 AM 8.6 °F -1.3 °F 1.4 °F 73% 30.34 in 10.0 mi NNW 5.8 mph - N/A   Clear
4:15 AM 8.6 °F -1.3 °F 1.4 °F 73% 30.33 in 10.0 mi NNW 5.8 mph - N/A   Clear
4:35 AM 8.6 °F 0.1 °F 1.4 °F 73% 30.34 in 10.0 mi WNW 4.6 mph - N/A   Clear
4:55 AM 8.6 °F 0.1 °F 1.4 °F 73% 30.34 in 10.0 mi WNW 4.6 mph - N/A   Partly Cloudy
5:15 AM 8.6 °F 0.1 °F 1.4 °F 73% 30.34 in 10.0 mi NW 4.6 mph - N/A   Partly Cloudy
5:35 AM 10.4 °F 2.2 °F 5.0 °F 79% 30.34 in 10.0 mi NW 4.6 mph - N/A   Clear
5:55 AM 10.4 °F 0.8 °F 1.4 °F 67% 30.34 in 10.0 mi NW 5.8 mph - N/A   Clear
6:15 AM 10.4 °F 0.8 °F 3.2 °F 73% 30.34 in 10.0 mi NNW 5.8 mph - N/A   Clear
6:35 AM 10.4 °F -1.5 °F 3.2 °F 73% 30.34 in 10.0 mi North 8.1 mph - N/A   Clear
6:55 AM 10.4 °F -1.5 °F 1.4 °F 67% 30.33 in 10.0 mi North 8.1 mph - N/A   Clear
7:15 AM 10.4 °F -1.5 °F 1.4 °F 67% 30.34 in 10.0 mi North 8.1 mph - N/A   Clear
7:35 AM 10.4 °F -0.4 °F 3.2 °F 73% 30.35 in 10.0 mi North 6.9 mph - N/A   Partly Cloudy
7:55 AM 10.4 °F 0.8 °F 1.4 °F 67% 30.35 in 10.0 mi North 5.8 mph - N/A   Mostly Cloudy
8:15 AM 10.4 °F 0.8 °F -0.4 °F 62% 30.35 in 10.0 mi North 5.8 mph - N/A   Overcast
8:35 AM 10.4 °F 2.2 °F 1.4 °F 67% 30.36 in 9.0 mi NNW 4.6 mph - N/A   Overcast
8:55 AM 10.4 °F 4.0 °F 5.0 °F 79% 30.37 in 2.0 mi WNW 3.5 mph - N/A   Overcast
9:15 AM 10.4 °F 4.0 °F 3.2 °F 73% 30.39 in 1.5 mi WNW 3.5 mph - N/A   Overcast
9:35 AM 10.4 °F 2.2 °F 6.8 °F 85% 30.39 in 0.8 mi WNW 4.6 mph - N/A   Overcast
9:55 AM 10.4 °F 2.2 °F 6.8 °F 85% 30.41 in 0.8 mi WNW 4.6 mph - N/A   Overcast
10:15 AM 10.4 °F 2.2 °F 5.0 °F 79% 30.42 in 1.0 mi NW 4.6 mph - N/A   Overcast
10:35 AM 10.4 °F -0.4 °F 5.0 °F 79% 30.44 in 1.5 mi NW 6.9 mph - N/A   Overcast
10:55 AM 10.4 °F -2.4 °F 6.8 °F 85% 30.44 in 1.2 mi NW 9.2 mph - N/A   Overcast
11:15 AM 10.4 °F -1.5 °F 6.8 °F 85% 30.44 in 1.8 mi NW 8.1 mph - N/A   Mostly Cloudy
11:35 AM 10.4 °F -3.3 °F 6.8 °F 85% 30.44 in 10.0 mi NW 10.4 mph - N/A   Clear
11:55 AM 10.4 °F -3.3 °F 6.8 °F 85% 30.43 in 8.0 mi NW 10.4 mph - N/A   Clear
12:15 PM 12.2 °F -1.8 °F 6.8 °F 79% 30.43 in 9.0 mi NW 11.5 mph - N/A   Clear
12:35 PM 12.2 °F -1.8 °F 6.8 °F 79% 30.42 in 10.0 mi WNW 11.5 mph - N/A   Clear
12:55 PM 12.2 °F -2.5 °F 6.8 °F 79% 30.42 in 10.0 mi NW 12.7 mph - N/A   Clear
1:15 PM 12.2 °F -3.1 °F 6.8 °F 79% 30.42 in 10.0 mi NW 13.8 mph - N/A   Partly Cloudy
1:35 PM 12.2 °F -2.5 °F 6.8 °F 79% 30.41 in 10.0 mi NW 12.7 mph - N/A   Mostly Cloudy
1:55 PM 12.2 °F -1.8 °F 6.8 °F 79% 30.41 in 10.0 mi WNW 11.5 mph - N/A   Mostly Cloudy
2:15 PM 12.2 °F -2.5 °F 6.8 °F 79% 30.40 in 10.0 mi NW 12.7 mph - N/A   Mostly Cloudy
2:35 PM 12.2 °F -3.1 °F 6.8 °F 79% 30.40 in 10.0 mi NW 13.8 mph - N/A   Overcast
3:15 PM 14.0 °F 0.5 °F 8.6 °F 79% 30.39 in 10.0 mi NW 11.5 mph - N/A   Partly Cloudy
3:35 PM 14.0 °F -0.2 °F 6.8 °F 73% 30.39 in 10.0 mi NW 12.7 mph 17.3 mph N/A   Clear
3:55 PM 14.0 °F 2.9 °F 6.8 °F 73% 30.38 in 10.0 mi NW 8.1 mph - N/A   Clear
4:15 PM 14.0 °F -0.2 °F 6.8 °F 73% 30.38 in 10.0 mi WNW 12.7 mph - N/A   Clear
4:35 PM 12.2 °F -1.0 °F 8.6 °F 85% 30.38 in 10.0 mi NW 10.4 mph - N/A   Clear
4:55 PM 12.2 °F -0.2 °F 6.8 °F 79% 30.38 in 10.0 mi WNW 9.2 mph - N/A   Scattered Clouds
5:15 PM 12.2 °F -1.8 °F 8.6 °F 85% 30.38 in 10.0 mi WNW 11.5 mph - N/A   Overcast
5:35 PM 14.0 °F 0.5 °F 8.6 °F 79% 30.39 in 10.0 mi WNW 11.5 mph - N/A   Overcast
5:55 PM 14.0 °F 1.2 °F 6.8 °F 73% 30.38 in 10.0 mi NW 10.4 mph - N/A   Overcast
6:15 PM 14.0 °F 1.2 °F 8.6 °F 79% 30.39 in 9.0 mi NW 10.4 mph - N/A   Overcast
6:55 PM 12.2 °F 0.7 °F 8.6 °F 85% 30.39 in 10.0 mi NW 8.1 mph - N/A   Mostly Cloudy
7:15 PM 12.2 °F -1.8 °F 5.0 °F 73% 30.40 in 10.0 mi NW 11.5 mph - N/A   Overcast
7:35 PM 12.2 °F -4.8 °F 5.0 °F 73% 30.40 in 10.0 mi NW 17.3 mph - N/A   Overcast
7:55 PM 12.2 °F -4.3 °F 1.4 °F 62% 30.39 in 10.0 mi NW 16.1 mph 20.7 mph N/A   Overcast
8:15 PM 10.4 °F -4.8 °F 3.2 °F 73% 30.39 in 10.0 mi NW 12.7 mph 17.3 mph N/A   Overcast
8:35 PM 10.4 °F -5.4 °F 3.2 °F 73% 30.40 in 10.0 mi NW 13.8 mph 20.7 mph N/A   Overcast
8:55 PM 10.4 °F -6.6 °F 1.4 °F 67% 30.39 in 10.0 mi NW 16.1 mph - N/A   Overcast
9:15 PM 8.6 °F -5.5 °F 3.2 °F 79% 30.40 in 10.0 mi NW 10.4 mph - N/A   Mostly Cloudy
9:35 PM 6.8 °F -9.3 °F -0.4 °F 72% 30.40 in 10.0 mi NW 12.7 mph - N/A   Scattered Clouds
9:55 PM 6.8 °F -10.7 °F -0.4 °F 72% 30.40 in 10.0 mi NW 15.0 mph - N/A   Scattered Clouds
10:15 PM 5.0 °F -12.3 °F -2.2 °F 72% 30.41 in 10.0 mi NW 13.8 mph - N/A   Clear
10:35 PM 3.2 °F -13.9 °F -2.2 °F 78% 30.42 in 10.0 mi NW 12.7 mph - N/A   Clear
10:55 PM 3.2 °F -15.3 °F -5.8 °F 66% 30.42 in 10.0 mi NW 15.0 mph - N/A   Clear
11:15 PM 3.2 °F -15.3 °F -5.8 °F 66% 30.42 in 10.0 mi NW 15.0 mph - N/A   Clear
11:35 PM 1.4 °F -16.9 °F -5.8 °F 72% 30.42 in 10.0 mi NW 13.8 mph - N/A   Clear
11:55 PM 1.4 °F -16.1 °F -5.8 °F 72% 30.42 in 10.0 mi WNW 12.7 mph - N/A   Clear